Location: Unspecified
(45.4615°N, 74.0512°W)
Time: 11:50:16
(UTC-05:00)

Okean 3 - Visible Passes

Search period start: 15 December 2018 00:00
Search period end: 25 December 2018 00:00
Orbit: 577 x 601 km, 82.5° (Epoch: 15 December)

Date Brightness Start Highest point End Pass type
(mag) Time Alt. Az. Time Alt. Az. Time Alt. Az.
15 Dec 5.0 17:56:48 10° SW 18:00:48 37° WNW 18:04:49 10° N visible
16 Dec 5.6 18:05:17 10° SW 18:08:54 26° WNW 18:12:33 10° NNW visible
17 Dec 6.1 18:14:01 10° WSW 18:17:04 19° WNW 18:20:07 10° NNW visible
18 Dec 3.5 16:43:18 10° S 16:47:33 64° E 16:51:49 10° NNE visible
18 Dec 6.4 18:23:10 10° W 18:25:16 13° WNW 18:27:21 10° NW visible
19 Dec 3.6 16:51:14 10° S 16:55:33 86° W 16:59:51 10° N visible
20 Dec 4.2 16:59:20 10° SSW 17:03:34 58° W 17:07:49 10° N visible
21 Dec 4.9 17:07:36 10° SW 17:11:38 39° WNW 17:15:41 10° N visible
22 Dec 5.6 17:16:03 10° SW 17:19:44 27° WNW 17:23:26 10° NNW visible
23 Dec 6.1 17:24:44 10° WSW 17:27:53 20° WNW 17:31:03 10° NNW visible
24 Dec 6.3 17:33:47 10° W 17:36:04 14° WNW 17:38:22 10° NW visible
